Temperature
14 14 15 15 15 15 15 15 16 16 16 16 16 16 17 17 17 17 17 17 18 18 17 17 18 17 18 17 18 18 18 18 18 18 18 18 18 18 18 18 18 18 18
14 14 14 14 14 15 15 15 15 16 16 16 16 16 16 17 17 17 17 17 17 17 17 17 17 18 18 18 18 18 18 18 18 17 17 17 18 18 18 18 18 18 17
14 14 14 14 14 14 14 15 15 15 15 16 16 16 16 16 16 17 17 17 17 17 17 17 17 17 17 18 18 18 17 17 17 17 17 17 17 17 18 17 17 17 17
13 13 14 14 14 14 14 14 15 15 15 16 16 16 16 16 16 16 17 17 17 17 17 17 17 17 17 17 18 18 18 17 17 17 17 17 17 17 17 17 17 17 17
13 13 13 13 14 14 14 14 14 15 15 15 15 16 16 16 16 16 17 17 17 17 17 17 17 17 17 17 18 18 18 17 17 17 17 17 17 17 17 17 17 17 17
13 13 13 13 13 14 14 14 14 14 15 15 15 15 16 16 16 16 16 17 17 17 17 17 17 17 17 17 17 18 18 17 17 17 17 17 17 17 17 17 17 17 17
12 13 13 13 13 13 13 13 14 14 14 14 15 15 16 16 16 16 16 16 17 16 17 17 17 17 17 17 17 18 18 18 17 17 17 17 17 17 17 17 17 17 17
12 12 12 13 13 13 13 13 13 14 14 14 15 15 16 16 16 16 16 16 16 16 17 17 17 17 17 17 17 17 17 17 17 17 17 17 17 17 17 17 17 17 17
12 12 12 12 12 13 13 13 13 13 14 14 14 15 15 16 16 15 16 16 16 16 16 16 17 17 17 17 17 17 17 17 17 17 17 17 17 17 17 17 17 17 17
12 12 12 12 12 12 12 13 13 13 13 14 14 14 14 15 15 15 15 15 16 16 16 16 16 16 17 17 17 17 17 17 17 17 17 17 17 17 17 17 17 17 17
12 12 12 12 12 12 12 12 12 13 13 13 13 14 14 14 15 15 15 15 15 15 16 16 16 16 16 16 17 17 17 17 17 17 17 17 17 17 17 17 17 17 17
12 12 11 11 12 12 12 12 12 12 12 13 13 13 13 14 14 14 15 15 15 15 15 15 16 16 16 16 16 17 17 17 17 17 17 17 17 17 17 17 17 17 17
12 11 11 11 11 11 11 12 12 12 12 12 12 13 13 13 13 13 14 14 15 15 15 15 15 15 15 15 16 16 17 17 17 17 17 17 17 17 17 17 17 17 17
12 11 11 11 11 11 11 11 12 12 12 12 12 12 12 13 13 13 13 14 15 15 15 15 15 15 15 15 15 16 16 16 17 17 17 17 17 17 17 17 17 17 17
12 11 11 11 11 11 11 11 11 11 11 12 12 12 12 12 12 12 13 13 13 15 15 15 14 14 14 14 15 15 15 16 16 16 17 17 17 17 17 17 17 17 17
12 12 12 12 11 11 11 11 11 11 11 11 12 12 12 12 12 12 12 12 13 13 14 14 14 14 14 14 14 15 15 16 16 16 16 16 16 16 16 16 16 17 17
12 12 12 12 12 11 11 11 11 11 11 11 11 11 11 12 12 12 12 12 12 12 13 13 13 13 13 13 14 14 14 15 15 16 16 16 16 16 16 16 16 16 16
12 12 12 12 12 11 11 11 11 11 11 11 11 11 11 11 12 12 12 12 12 12 12 12 13 13 13 13 13 14 14 14 15 15 16 16 16 16 16 16 16 16 16
13 12 12 12 12 12 11 11 11 11 11 11 11 11 11 11 11 11 12 12 12 12 12 12 12 12 12 13 13 13 13 14 14 14 15 15 16 16 16 16 16 16 16
13 13 13 12 12 12 12 12 11 11 11 11 11 11 11 11 11 11 11 11 11 12 12 12 12 12 12 12 12 13 13 13 14 14 14 15 15 15 15 16 16 16 16
13 13 13 13 12 12 12 12 12 11 11 12 12 12 12 12 12 12 12 11 11 11 11 11 12 12 12 12 12 12 12 13 13 13 13 14 14 14 15 15 15 15 15
14 14 13 13 13 13 13 13 12 12 12 12 12 12 12 12 12 12 12 12 12 11 11 11 11 12 12 12 12 12 12 12 12 13 13 13 13 14 14 14 14 15 15
14 14 14 14 13 13 13 13 13 12 12 12 12 12 12 12 12 11 11 12 12 12 12 11 11 11 11 11 11 11 12 12 12 12 12 13 13 13 14 14 14 15 15
15 15 14 14 14 14 13 13 13 13 12 12 12 12 12 12 12 12 11 11 11 11 11 11 11 11 11 11 11 12 12 12 12 12 12 12 13 13 13 13 14 14 14
15 15 14 14 14 14 14 13 13 13 12 12 12 12 12 12 12 12 12 11 11 11 11 12 12 12 12 12 12 12 12 11 11 12 12 11 12 12 13 13 13 14 14
15 15 14 14 14 14 14 14 13 13 12 12 12 12 12 12 12 12 12 11 11 11 11 11 11 11 11 11 11 11 11 11 11 11 11 11 12 12 12 13 13 13 13
Wind_Speed
5 5 4 3 4 3 3 4 5 5 5 6 6 7 7 7 7 6 4 5 5 5 6 7 7 7 8 7 7 7 8 8 9 9 10 11 11 11 11 12 12 12 11
5 5 5 4 3 3 3 4 5 5 5 5 6 6 6 6 7 7 6 6 7 6 6 6 6 7 8 8 8 8 9 9 9 10 11 11 12 12 12 12 12 12 11
6 5 5 4 4 3 3 3 4 4 5 5 6 6 5 6 7 7 6 5 6 9 8 7 7 8 8 8 8 8 9 9 10 10 11 12 12 13 13 12 12 12 12
7 5 5 5 4 4 3 3 3 4 4 4 4 4 4 4 7 6 6 6 5 6 9 9 8 9 9 8 9 8 8 9 10 11 12 13 13 13 13 13 12 12 12
8 6 5 5 5 4 3 3 2 3 3 3 4 4 4 4 5 6 6 6 5 5 6 9 9 9 10 9 9 9 9 10 10 11 12 13 13 13 13 13 12 12 13
8 7 5 6 6 4 3 3 2 2 2 2 3 3 4 4 5 5 5 4 4 5 6 6 8 10 12 11 10 10 10 11 11 12 12 13 13 14 14 13 13 13 13
8 7 6 6 6 4 4 3 2 2 1 1 2 3 3 4 4 4 4 4 4 4 6 6 7 6 9 13 13 11 11 12 12 12 13 14 14 15 15 14 14 14 14
7 7 7 6 6 5 5 4 2 2 1 0 1 2 3 3 3 3 3 4 5 4 5 6 6 6 6 8 12 15 13 13 13 13 14 14 15 16 16 16 16 16 15
6 7 7 7 6 5 5 5 4 2 1 0 1 2 1 2 1 2 2 2 3 3 4 5 6 6 7 7 7 14 15 14 13 13 14 15 15 17 17 17 17 17 16
5 6 6 6 6 6 5 5 5 3 3 1 0 1 1 1 1 1 2 2 1 2 2 3 4 5 6 6 6 5 11 13 14 14 15 15 16 17 18 19 19 18 18
4 5 5 5 6 5 6 6 5 5 3 3 2 1 1 1 2 2 1 1 1 1 2 2 3 3 4 5 5 5 7 10 12 14 15 16 16 17 18 19 19 19 19
2 4 4 4 5 5 6 6 5 5 4 3 3 2 2 1 1 2 2 1 1 1 1 1 2 2 2 4 4 1 5 8 11 12 14 15 16 17 18 19 20 21 21
2 4 4 4 4 5 5 5 4 4 4 3 3 3 2 2 2 2 2 2 2 1 1 2 1 1 1 2 2 1 6 8 10 11 13 14 15 16 18 19 20 21 22
3 3 4 4 4 4 4 4 4 4 4 3 3 3 2 2 2 2 2 3 3 3 2 2 1 1 1 2 1 4 6 7 9 11 13 14 15 16 17 19 20 21 22
3 3 3 3 3 4 4 4 3 4 4 3 3 2 2 1 2 2 2 3 3 4 3 1 1 0 2 3 3 4 5 3 7 10 12 13 14 15 16 18 19 20 22
3 3 3 3 2 3 3 3 3 3 3 3 3 3 3 2 2 2 2 2 3 4 4 2 2 3 3 4 3 5 6 5 9 10 11 13 14 15 16 17 19 20 21
3 3 3 3 3 3 3 2 3 3 3 3 2 2 2 3 2 2 2 2 3 3 5 5 3 4 4 4 4 5 6 7 7 8 10 12 13 15 16 17 19 20 21
3 3 2 3 2 2 3 3 3 2 3 3 3 3 2 2 2 2 2 2 2 3 5 5 5 4 5 5 5 6 6 6 7 6 9 11 13 14 16 17 18 19 20
3 3 3 3 2 2 2 2 2 3 3 3 3 3 3 2 2 2 2 2 2 3 4 5 5 4 5 4 5 6 6 5 7 6 8 12 13 14 15 16 17 18 20
4 4 4 3 3 3 3 3 2 3 3 3 3 3 3 3 3 3 3 3 3 3 4 4 5 5 5 5 5 5 5 5 6 7 7 8 10 13 15 16 17 18 19
6 5 5 5 4 4 4 4 3 4 4 3 3 3 3 3 5 5 4 4 4 4 4 4 5 5 5 4 5 5 6 6 7 5 5 6 6 8 9 14 17 18 18
7 6 7 6 6 5 2 4 7 6 5 5 4 4 3 4 4 5 5 5 6 6 5 5 5 6 6 6 5 5 6 6 5 3 6 8 7 8 8 9 9 12 15
7 8 8 8 8 6 6 8 9 8 7 6 6 5 4 3 4 5 5 7 8 8 8 8 8 8 8 7 7 8 7 7 8 8 8 9 8 9 8 8 10 13 15
7 7 8 8 8 7 7 9 9 10 9 8 7 7 6 6 5 5 6 6 7 6 6 8 8 8 8 8 8 8 9 9 10 8 7 8 8 8 8 8 10 13 15
7 7 6 7 8 7 7 8 9 8 8 9 8 8 7 7 2 4 7 7 7 6 6 9 9 10 11 11 9 7 8 8 8 8 6 6 8 8 8 8 7 10 14
5 5 5 6 6 7 3 5 8 8 9 8 7 7 6 7 3 5 7 7 7 7 7 6 8 10 10 9 10 9 8 8 7 6 4 4 7 6 6 5 5 5 8
Wind_Direction
321 315 301 299 288 279 255 246 240 230 227 225 228 230 232 234 233 238 218 175 222 237 237 226 218 213 208 206 208 207 202 194 187 186 179 173 171 167 162 160 158 156 154
329 322 310 300 297 284 277 257 243 238 232 226 229 231 234 240 238 236 239 196 198 218 228 222 218 216 207 204 206 202 197 189 186 186 180 175 171 168 166 165 165 163 161
335 328 322 313 306 292 272 264 253 243 231 223 227 234 231 242 245 237 236 234 206 196 209 216 217 217 211 205 203 201 193 187 187 185 182 177 173 171 171 171 171 169 167
348 343 335 328 320 309 292 272 258 244 233 226 226 233 231 233 246 244 241 230 223 212 193 197 211 213 211 207 202 201 196 192 192 187 185 180 178 177 176 175 176 175 173
354 354 347 338 331 320 309 294 271 263 241 233 230 229 236 233 241 240 239 236 221 222 211 180 199 209 209 207 204 201 201 197 194 190 187 185 184 182 181 179 180 180 176
360 357 351 352 346 338 330 311 294 270 262 245 240 226 232 230 238 235 239 239 238 222 221 208 198 201 205 208 206 203 204 202 199 196 193 192 191 189 187 185 186 188 185
360 4 356 -0 356 357 351 335 307 276 273 255 242 224 216 220 231 228 231 234 233 230 225 218 218 211 198 203 208 209 208 207 205 204 201 200 197 196 193 194 196 195 195
1 1 3 2 7 1 7 2 349 322 323 271 263 245 214 191 204 208 214 226 231 221 231 225 221 220 230 206 199 203 210 210 210 209 210 207 202 201 199 200 202 201 201
7 4 6 3 4 6 13 9 7 356 328 285 308 288 259 216 172 162 184 204 232 235 234 239 231 221 225 230 209 198 206 212 214 215 216 213 208 206 205 206 206 205 205
12 9 9 6 7 10 10 10 20 3 349 348 22 340 345 354 272 189 168 158 180 235 245 240 243 234 229 229 228 212 201 215 219 222 222 219 215 211 210 210 211 210 210
13 15 8 8 11 13 15 13 12 10 6 358 356 350 348 322 294 278 206 166 179 208 232 244 246 246 243 238 236 218 199 218 224 226 227 226 222 219 216 215 214 215 216
15 24 6 4 8 13 14 10 9 16 10 6 351 356 349 331 329 310 281 258 237 233 238 229 240 232 240 244 236 220 221 229 233 233 232 231 229 227 224 220 220 219 220
4 15 359 360 7 8 7 5 9 12 17 8 355 352 353 348 341 318 295 284 277 255 232 213 209 225 250 258 245 251 233 234 240 241 241 236 233 232 229 227 226 225 224
345 349 345 350 356 354 355 1 356 13 8 8 4 351 332 351 344 328 313 298 274 245 225 209 210 209 315 293 11 274 249 225 242 245 244 241 236 235 233 232 232 231 229
312 314 320 322 343 345 348 348 356 2 359 358 359 351 335 340 318 319 305 294 288 274 251 215 235 359 326 321 321 285 274 237 247 247 246 244 241 237 236 235 234 234 232
298 298 297 305 323 329 335 342 341 358 345 9 351 342 342 326 319 298 283 272 272 281 276 269 283 304 319 298 303 297 284 270 248 242 245 246 245 242 241 239 237 235 234
268 275 290 295 308 318 326 335 333 343 333 342 341 345 341 335 309 294 279 265 258 266 272 282 288 297 297 295 300 294 286 275 259 225 239 247 247 245 243 241 239 237 235
274 271 275 280 291 306 318 324 319 317 324 329 332 330 333 336 312 301 287 274 272 267 273 286 294 299 297 302 297 292 286 278 276 243 237 247 249 246 244 243 242 240 238
254 250 249 268 278 284 290 287 293 302 306 310 318 321 327 319 299 299 287 283 280 276 275 279 289 298 292 298 303 294 286 285 281 265 242 241 243 244 244 243 242 241 240
241 250 256 261 268 271 270 273 279 286 290 290 292 296 306 306 301 298 287 285 283 278 274 276 284 288 290 295 292 297 300 297 289 283 267 258 246 241 242 241 240 239 239
241 244 252 255 255 261 267 280 278 278 283 285 278 276 289 318 326 308 303 301 292 282 279 279 283 287 289 297 300 307 300 304 292 276 283 274 264 259 249 237 233 234 235
243 242 246 250 253 251 208 253 273 272 274 275 278 276 264 252 250 247 271 291 298 289 291 285 283 285 291 294 297 295 298 303 297 299 297 288 280 270 262 258 246 233 235
240 242 245 247 250 243 204 231 245 267 269 272 275 274 273 269 263 265 236 233 243 240 256 278 283 285 291 295 293 289 288 289 285 296 300 286 276 270 267 261 240 238 240
240 243 248 249 251 247 213 230 237 248 257 259 258 261 263 265 261 278 275 269 271 262 252 258 274 285 290 294 289 285 288 286 284 278 270 277 280 276 275 270 247 236 239
247 247 248 250 254 250 207 221 237 248 250 253 251 249 253 257 207 244 267 272 277 275 234 235 265 276 286 280 274 274 270 272 284 289 278 268 283 291 285 274 257 232 237
251 257 254 256 260 266 203 211 241 250 253 254 250 245 228 247 241 227 256 269 278 288 293 277 256 249 260 255 236 248 262 269 278 285 276 272 285 298 292 277 276 274 257
Height
1509 1508 1507 1505 1505 1505 1504 1505 1505 1506 1507 1508 1510 1511 1513 1514 1516 1517 1518 1518 1519 1520 1521 1522 1523 1523 1524 1526 1527 1529 1530 1532 1534 1536 1538 1540 1541 1543 1544 1546 1547 1549 1550
1508 1506 1505 1504 1504 1503 1503 1503 1503 1504 1505 1506 1507 1508 1510 1512 1514 1515 1516 1517 1517 1518 1519 1521 1522 1522 1524 1525 1526 1528 1530 1532 1533 1535 1537 1539 1541 1543 1544 1546 1547 1549 1550
1507 1505 1504 1503 1502 1502 1501 1501 1501 1502 1503 1504 1505 1506 1507 1509 1511 1513 1514 1515 1516 1517 1518 1519 1520 1522 1523 1524 1525 1527 1529 1531 1533 1535 1537 1538 1540 1542 1544 1546 1547 1549 1550
1506 1504 1503 1502 1501 1500 1500 1500 1500 1500 1501 1502 1503 1504 1505 1506 1508 1510 1512 1513 1514 1516 1517 1518 1519 1520 1522 1523 1524 1526 1528 1529 1532 1534 1536 1538 1540 1542 1543 1545 1547 1549 1550
1506 1504 1502 1500 1500 1499 1498 1499 1499 1499 1499 1499 1501 1501 1503 1504 1506 1507 1509 1511 1512 1513 1515 1516 1517 1519 1520 1522 1523 1525 1526 1528 1530 1532 1535 1537 1539 1541 1543 1545 1547 1548 1550
1505 1503 1502 1500 1499 1498 1497 1497 1497 1497 1498 1498 1499 1500 1501 1502 1503 1505 1506 1508 1510 1511 1513 1515 1516 1518 1519 1520 1522 1523 1525 1527 1529 1531 1533 1535 1538 1540 1542 1544 1546 1548 1549
1505 1503 1502 1500 1498 1498 1497 1496 1496 1497 1497 1497 1498 1499 1500 1500 1501 1502 1504 1505 1507 1509 1510 1512 1514 1516 1517 1518 1520 1521 1523 1525 1527 1529 1531 1534 1536 1538 1540 1542 1544 1546 1548
1505 1504 1502 1500 1499 1497 1497 1496 1495 1496 1496 1496 1497 1498 1499 1500 1499 1501 1501 1503 1505 1506 1508 1510 1512 1513 1515 1517 1518 1520 1521 1523 1525 1527 1529 1532 1534 1536 1538 1540 1542 1545 1546
1505 1504 1502 1501 1499 1498 1497 1496 1495 1495 1496 1496 1496 1497 1498 1498 1499 1499 1499 1501 1502 1504 1506 1508 1510 1511 1513 1515 1516 1517 1519 1521 1523 1525 1527 1529 1531 1533 1536 1538 1540 1542 1544
1506 1504 1503 1501 1500 1499 1498 1497 1496 1495 1495 1496 1496 1496 1497 1497 1499 1499 1500 1500 1500 1502 1503 1505 1507 1509 1510 1512 1513 1515 1517 1519 1521 1522 1524 1526 1529 1531 1533 1535 1537 1539 1542
1507 1505 1503 1502 1501 1500 1498 1497 1496 1495 1495 1495 1496 1496 1496 1497 1498 1498 1498 1499 1500 1501 1502 1503 1504 1506 1507 1509 1510 1512 1514 1516 1518 1520 1521 1523 1526 1528 1530 1532 1534 1536 1538
1508 1506 1505 1503 1502 1501 1499 1498 1496 1496 1495 1495 1495 1496 1496 1496 1497 1498 1498 1498 1499 1500 1500 1501 1502 1503 1504 1505 1507 1508 1510 1512 1514 1516 1518 1520 1522 1524 1526 1528 1530 1532 1534
1509 1507 1506 1504 1503 1501 1500 1498 1497 1497 1496 1495 1495 1495 1495 1496 1496 1497 1498 1498 1498 1499 1499 1500 1500 1500 1501 1502 1503 1505 1506 1508 1510 1512 1514 1516 1518 1520 1522 1524 1526 1528 1530
1509 1507 1505 1504 1503 1502 1500 1499 1498 1497 1496 1496 1495 1495 1495 1495 1495 1496 1496 1497 1497 1498 1498 1499 1499 1499 1499 1500 1500 1501 1503 1504 1506 1508 1509 1511 1513 1515 1517 1519 1521 1523 1525
1508 1507 1505 1504 1503 1501 1500 1499 1498 1497 1496 1496 1495 1494 1494 1494 1494 1494 1495 1495 1497 1496 1497 1497 1497 1497 1497 1497 1497 1498 1499 1500 1501 1503 1505 1506 1508 1510 1512 1514 1516 1518 1520
1507 1506 1505 1504 1503 1501 1500 1499 1498 1496 1496 1495 1494 1494 1493 1494 1493 1493 1493 1494 1494 1495 1495 1495 1495 1495 1494 1494 1494 1495 1495 1496 1497 1498 1499 1501 1503 1504 1506 1508 1510 1512 1514
1507 1506 1505 1504 1503 1502 1501 1499 1498 1497 1496 1496 1495 1494 1493 1492 1492 1492 1492 1492 1492 1493 1493 1493 1493 1492 1492 1491 1491 1491 1492 1492 1493 1493 1494 1495 1497 1498 1500 1502 1503 1505 1507
1506 1505 1504 1503 1503 1501 1500 1499 1497 1496 1496 1495 1495 1494 1493 1492 1491 1491 1491 1491 1491 1491 1491 1491 1490 1490 1489 1489 1488 1488 1488 1488 1488 1489 1489 1490 1491 1492 1493 1495 1497 1498 1500
1505 1505 1504 1503 1502 1501 1500 1498 1497 1497 1496 1495 1494 1493 1493 1492 1491 1491 1490 1490 1489 1489 1489 1488 1488 1487 1487 1486 1485 1485 1485 1484 1484 1484 1484 1484 1485 1486 1487 1488 1490 1491 1493
1504 1504 1503 1502 1501 1500 1499 1498 1497 1496 1496 1495 1493 1492 1492 1491 1490 1490 1489 1488 1488 1487 1487 1486 1486 1485 1485 1484 1483 1482 1482 1481 1480 1480 1479 1479 1479 1479 1480 1481 1483 1484 1486
1503 1502 1502 1501 1500 1499 1498 1498 1497 1496 1495 1494 1493 1492 1490 1489 1488 1488 1487 1487 1486 1486 1485 1485 1484 1483 1483 1481 1481 1479 1478 1477 1476 1476 1475 1475 1474 1474 1474 1474 1475 1476 1478
1501 1501 1500 1500 1498 1498 1496 1495 1495 1495 1494 1493 1492 1491 1490 1488 1487 1486 1485 1484 1484 1484 1483 1482 1482 1481 1480 1479 1478 1477 1476 1474 1473 1473 1471 1470 1469 1468 1468 1468 1469 1469 1470
1499 1498 1497 1497 1496 1496 1495 1494 1493 1492 1492 1492 1491 1490 1489 1487 1485 1485 1483 1482 1482 1481 1480 1480 1479 1479 1478 1477 1475 1474 1472 1471 1469 1468 1467 1465 1464 1463 1463 1462 1462 1463 1463
1495 1495 1494 1494 1493 1493 1492 1491 1491 1490 1490 1489 1488 1487 1486 1485 1484 1483 1482 1481 1480 1479 1478 1477 1477 1475 1474 1473 1472 1470 1469 1467 1465 1464 1463 1461 1459 1459 1458 1457 1456 1456 1456
1492 1491 1491 1490 1490 1489 1489 1488 1488 1487 1487 1487 1486 1485 1484 1483 1482 1481 1480 1479 1478 1477 1475 1473 1472 1471 1470 1469 1468 1466 1465 1464 1462 1461 1460 1458 1456 1454 1453 1451 1451 1450 1450
1488 1487 1487 1486 1485 1485 1485 1484 1484 1484 1484 1484 1483 1482 1480 1480 1479 1478 1477 1477 1475 1475 1473 1471 1470 1468 1467 1465 1464 1463 1462 1461 1459 1457 1456 1454 1452 1451 1448 1447 1446 1445 1444